Location: Mesa
(33.4220°N, 111.8220°W)
Time: 17:30:01
(UTC-07:00)

Hubble Space Telescope - Pass Details

Date: 25 November 2019
Orbit: 536 x 540 km, 28.5° (Epoch: 12 December)

Event Time Altitude Azimuth Distance (km) Brightness Sun altitude
Rises 17:54:59 0° 261° (W) 2,668 6.4 -7.5°
Reaches altitude 10° 17:57:19 10° 254° (WSW) 1,778 5.2 -7.9°
Maximum altitude 18:01:11 40° 183° (S) 785 1.8 -8.7°
Drops below altitude 10° 18:05:04 10° 113° (ESE) 1,779 3.0 -9.5°
Enters shadow 18:05:48 - 110° (ESE) 2,051 3.3 -9.6°
